,,PA_Meas_PMT16A,,PR_Meas_QMR101_102,,RH_Meas_QMH101,,SR_Meas_QMS101,,TA_Meas_QMH101,,GenWind,,GenWind,
time,status,PA,status,PR,status,RH,status,SR,status,TA,status,DirAvg,status,SpdAvg,
2016-01-28, 10:40:04,VALID,920.556,VALID,0,VALID,104,VALID,67.0433,VALID,19.8783,VALID,162,VALID,0,
2016-01-28, 10:42:04,VALID,920.566,VALID,0,VALID,104,VALID,69.5144,VALID,19.8393,VALID,152,VALID,1.69219,
2016-01-28, 10:43:04,VALID,920.573,VALID,0,VALID,104,VALID,70.5888,VALID,19.8798,VALID,111,VALID,0.171484,
2016-01-28, 10:44:04,VALID,920.604,VALID,0,VALID,104,VALID,71.6632,VALID,19.8393,VALID,128,VALID,0.870313,
2016-01-28, 10:45:04,VALID,920.613,VALID,0,VALID,104,VALID,72.4153,VALID,19.8588,VALID,146,VALID,0.908984,
2016-01-28, 10:47:04,VALID,920.629,VALID,0,VALID,104,VALID,73.8121,VALID,19.8393,VALID,137,VALID,1.29375,
2016-01-28, 10:48:04,VALID,920.675,VALID,0,VALID,104,VALID,74.4567,VALID,19.8798,VALID,130,VALID,1.08789,
2016-01-28, 10:49:04,VALID,920.639,VALID,0,VALID,104,VALID,74.8865,VALID,19.8783,VALID,128,VALID,1.30391,
2016-01-28, 10:50:04,VALID,920.683,VALID,0,VALID,104,VALID,75.2088,VALID,19.8588,VALID,128,VALID,1.3125,
2016-01-28, 12:23:04,VALID,920.422,VALID,0,VALID,104,VALID,102.391,VALID,20.1318,VALID,160,VALID,0.83125,
2016-01-28, 12:24:04,VALID,920.383,VALID,0,VALID,104,VALID,104.97,VALID,20.1529,VALID,159,VALID,1.06406,
2016-01-28, 12:25:04,VALID,920.389,VALID,0,VALID,104,VALID,107.549,VALID,20.1708,VALID,154,VALID,1.13945,
2016-01-28, 12:26:04,VALID,920.334,VALID,0,VALID,104,VALID,110.235,VALID,20.1903,VALID,163,VALID,0.703125,
2016-01-28, 12:27:04,VALID,920.323,VALID,0.2,VALID,104,VALID,113.136,VALID,20.1903,VALID,140,VALID,0.754687,
2016-01-28, 12:28:04,VALID,920.303,VALID,0,VALID,104,VALID,116.036,VALID,20.1708,VALID,156,VALID,1.47539,
2016-01-28, 12:29:04,VALID,920.24,VALID,0,VALID,104,VALID,119.367,VALID,20.1108,VALID,136,VALID,1.68516,
2016-01-28, 12:30:04,VALID,920.237,VALID,0,VALID,104,VALID,122.913,VALID,20.1693,VALID,142,VALID,1.03789,
2016-01-28, 12:31:04,VALID,920.188,VALID,0,VALID,104,VALID,126.458,VALID,20.2489,VALID,158,VALID,0.444922,
2016-01-28, 12:32:04,VALID,920.169,VALID,0,VALID,104,VALID,130.541,VALID,20.2278,VALID,161,VALID,1.32539,
2016-01-28, 12:33:04,VALID,920.141,VALID,0,VALID,104,VALID,134.516,VALID,20.1903,VALID,137,VALID,1.2168,
2016-01-28, 12:34:04,VALID,920.107,VALID,0,VALID,104,VALID,138.492,VALID,20.2068,VALID,158,VALID,0.0195313,
2016-01-28, 12:35:04,VALID,920.109,VALID,0,VALID,104,VALID,142.682,VALID,20.2863,VALID,152,VALID,0,
2016-01-28, 12:36:04,VALID,920.066,VALID,0.2,VALID,104,VALID,146.55,VALID,20.3269,VALID,185,VALID,0.558594,
2016-01-28, 12:37:04,VALID,920.073,VALID,0,VALID,104,VALID,150.31,VALID,20.3074,VALID,168,VALID,1.2332,
2016-01-28, 12:38:04,VALID,920.019,VALID,0,VALID,104,VALID,153.963,VALID,20.3074,VALID,170,VALID,0.891406,
2016-01-28, 12:39:04,VALID,920.002,VALID,0,VALID,104,VALID,157.831,VALID,20.3074,VALID,125,VALID,0.371875,
2016-01-28, 12:40:04,VALID,919.969,VALID,0,VALID,104,VALID,161.162,VALID,20.3854,VALID,148,VALID,0.616797,
2016-01-28, 12:41:04,VALID,919.928,VALID,0,VALID,104,VALID,164.707,VALID,20.3643,VALID,124,VALID,0.767969,
2016-01-28, 12:42:04,VALID,919.891,VALID,0,VALID,104,VALID,167.608,VALID,20.3253,VALID,150,VALID,0.679297,
2016-01-28, 12:43:04,VALID,919.844,VALID,0,VALID,104,VALID,170.187,VALID,20.2489,VALID,143,VALID,1.87578,
2016-01-28, 12:44:04,VALID,919.817,VALID,0,VALID,104,VALID,172.55,VALID,20.1693,VALID,168,VALID,1.83047,
2016-01-28, 12:45:04,VALID,919.768,VALID,0,VALID,104,VALID,175.022,VALID,20.0913,VALID,148,VALID,2.51445,
2016-01-28, 12:46:04,VALID,919.801,VALID,0,VALID,104,VALID,177.17,VALID,20.0328,VALID,173,VALID,1.52656,
2016-01-28, 12:47:04,VALID,919.717,VALID,0,VALID,104,VALID,179.856,VALID,19.9938,VALID,142,VALID,0.880859,
2016-01-28, 12:48:04,VALID,919.701,VALID,0,VALID,104,VALID,182.65,VALID,20.0913,VALID,158,VALID,0.116406,
2016-01-28, 12:49:04,VALID,919.703,VALID,0,VALID,104,VALID,185.873,VALID,20.1123,VALID,145,VALID,0.928516,
2016-01-28, 12:50:04,VALID,919.664,VALID,0,VALID,104,VALID,188.989,VALID,20.0328,VALID,155,VALID,2.06445,
2016-01-28, 12:51:04,VALID,919.623,VALID,0,VALID,104,VALID,192.32,VALID,20.0928,VALID,136,VALID,0.713672,
2016-01-28, 12:52:04,VALID,919.598,VALID,0,VALID,104,VALID,195.758,VALID,20.1108,VALID,161,VALID,1.46992,
2016-01-28, 12:53:04,VALID,919.563,VALID,0,VALID,104,VALID,199.088,VALID,20.0523,VALID,152,VALID,1.57109,
2016-01-28, 12:54:04,VALID,919.54,VALID,0.2,VALID,104,VALID,202.312,VALID,20.1108,VALID,147,VALID,1.70898,
2016-01-28, 12:55:04,VALID,919.486,VALID,0,VALID,104,VALID,205.535,VALID,20.1318,VALID,146,VALID,1.41914,
2016-01-28, 12:56:04,VALID,919.417,VALID,0,VALID,104,VALID,209.08,VALID,20.1708,VALID,137,VALID,2.22852,
2016-01-28, 12:57:04,VALID,919.378,VALID,0,VALID,104,VALID,212.519,VALID,20.1678,VALID,142,VALID,1.97656,
2016-01-28, 12:58:04,VALID,919.296,VALID,0,VALID,104,VALID,215.634,VALID,20.1693,VALID,122,VALID,2.05391,
2016-01-28, 12:59:04,VALID,919.235,VALID,0,VALID,104,VALID,218.75,VALID,20.1888,VALID,138,VALID,1.28867,
2016-01-28, 13:00:04,VALID,919.178,VALID,0,VALID,104,VALID,221.329,VALID,20.2068,VALID,168,VALID,1.29648,
2016-01-28, 13:01:04,VALID,919.114,VALID,0,VALID,104,VALID,224.122,VALID,20.2278,VALID,161,VALID,2.23633,
2016-01-28, 13:02:04,VALID,919.082,VALID,0,VALID,104,VALID,226.701,VALID,20.2668,VALID,141,VALID,1.62148,
2016-01-28, 13:03:04,VALID,919.03,VALID,0,VALID,104,VALID,229.065,VALID,20.3058,VALID,122,VALID,1.22109,
2016-01-28, 13:04:04,VALID,918.982,VALID,0,VALID,104,VALID,230.676,VALID,20.3643,VALID,197,VALID,0.889453,
2016-01-28, 13:05:04,VALID,918.938,VALID,0,VALID,104,VALID,232.288,VALID,20.4408,VALID,222,VALID,0.720312,
2016-01-28, 13:06:04,VALID,918.925,VALID,0,VALID,104,VALID,233.255,VALID,20.4423,VALID,151,VALID,0.0527344,
2016-01-28, 13:07:04,VALID,918.903,VALID,0,VALID,104,VALID,233.685,VALID,20.4618,VALID,166,VALID,0,
2016-01-28, 13:08:04,VALID,918.911,VALID,0,VALID,104,VALID,233.577,VALID,20.4439,VALID,196,VALID,1.41602,
2016-01-28, 13:09:04,VALID,918.909,VALID,0,VALID,104,VALID,233.04,VALID,20.4829,VALID,145,VALID,1.12305,
2016-01-28, 13:10:04,VALID,918.92,VALID,0,VALID,104,VALID,231.965,VALID,20.4228,VALID,165,VALID,1.27578,
2016-01-28, 13:11:04,VALID,918.872,VALID,0,VALID,104,VALID,231.106,VALID,20.4439,VALID,181,VALID,0.754297,
2016-01-28, 13:12:04,VALID,918.83,VALID,0,VALID,104,VALID,230.139,VALID,20.5609,VALID,116,VALID,0.676172,
2016-01-28, 13:13:04,VALID,918.812,VALID,0,VALID,104,VALID,229.065,VALID,20.6374,VALID,137,VALID,0.751562,
2016-01-28, 13:14:04,VALID,918.774,VALID,0,VALID,104,VALID,228.205,VALID,20.6374,VALID,177,VALID,0.996094,
2016-01-28, 13:15:04,VALID,918.74,VALID,0,VALID,104,VALID,227.883,VALID,20.639,VALID,178,VALID,0.524219,
2016-01-28, 13:16:04,VALID,918.711,VALID,0,VALID,104,VALID,227.883,VALID,20.5789,VALID,132,VALID,0.897656,
2016-01-28, 13:17:04,VALID,918.677,VALID,0,VALID,104,VALID,227.238,VALID,20.6569,VALID,123,VALID,0,
2016-01-28, 13:18:04,VALID,918.656,VALID,0,VALID,104,VALID,226.271,VALID,20.7528,VALID,73,VALID,0.733984,
2016-01-28, 13:19:04,VALID,918.61,VALID,0,VALID,104,VALID,225.304,VALID,20.7544,VALID,90,VALID,0.224609,
2016-01-28, 13:20:04,VALID,918.596,VALID,0,VALID,104,VALID,223.8,VALID,20.8324,VALID,52,VALID,1.37656,
2016-01-28, 13:21:04,VALID,918.563,VALID,0,VALID,104,VALID,222.188,VALID,20.7934,VALID,47,VALID,0.728516,
2016-01-28, 13:22:04,VALID,918.554,VALID,0,VALID,104,VALID,220.577,VALID,20.8129,VALID,61,VALID,0.499609,
2016-01-28, 13:23:04,VALID,918.554,VALID,0,VALID,104,VALID,219.18,VALID,20.8309,VALID,52,VALID,0.376953,
2016-01-28, 13:24:04,VALID,918.48,VALID,0,VALID,104,VALID,217.998,VALID,20.7544,VALID,116,VALID,1.18711,
2016-01-28, 13:25:04,VALID,918.45,VALID,0,VALID,104,VALID,216.816,VALID,20.891,VALID,26,VALID,1.28164,
2016-01-28, 13:26:04,VALID,918.469,VALID,0,VALID,104,VALID,215.849,VALID,20.9105,VALID,56,VALID,1.35859,
2016-01-28, 13:27:04,VALID,918.422,VALID,0,VALID,104,VALID,215.205,VALID,20.8519,VALID,50,VALID,1.15703,
2016-01-28, 13:28:04,VALID,918.412,VALID,0,VALID,104,VALID,214.882,VALID,20.8714,VALID,61,VALID,1.28555,
2016-01-28, 13:29:04,VALID,918.412,VALID,0,VALID,104,VALID,214.882,VALID,20.9511,VALID,32,VALID,1.275,
2016-01-28, 13:30:04,VALID,918.374,VALID,0,VALID,103.747,VALID,215.312,VALID,20.8519,VALID,45,VALID,1.56836,
2016-01-28, 13:31:04,VALID,918.356,VALID,0,VALID,103.968,VALID,216.064,VALID,20.9511,VALID,45,VALID,1.54844,
2016-01-28, 13:32:04,VALID,918.371,VALID,0,VALID,104,VALID,216.816,VALID,20.9885,VALID,32,VALID,1.62461,
2016-01-28, 13:33:04,VALID,918.343,VALID,0,VALID,104,VALID,217.568,VALID,20.969,VALID,24,VALID,1.78047,
2016-01-28, 13:34:04,VALID,918.354,VALID,0,VALID,104,VALID,218.213,VALID,20.912,VALID,20,VALID,1.90937,
2016-01-28, 13:35:04,VALID,918.343,VALID,0,VALID,104,VALID,218.428,VALID,20.9706,VALID,13,VALID,1.59648,
2016-01-28, 13:36:04,VALID,918.343,VALID,0,VALID,104,VALID,218.32,VALID,20.9885,VALID,2,VALID,1.69805,
2016-01-28, 13:37:04,VALID,918.356,VALID,0,VALID,104,VALID,217.783,VALID,21.0291,VALID,28,VALID,2.45977,
2016-01-28, 13:38:04,VALID,918.386,VALID,0,VALID,104,VALID,217.139,VALID,20.9089,VALID,52,VALID,2.04922,
2016-01-28, 13:39:04,VALID,918.358,VALID,0,VALID,104,VALID,216.386,VALID,20.9105,VALID,54,VALID,1.97305,
2016-01-28, 13:40:04,VALID,918.366,VALID,0,VALID,104,VALID,215.957,VALID,20.8714,VALID,53,VALID,2.23555,
2016-01-28, 13:41:04,VALID,918.354,VALID,0,VALID,104,VALID,215.957,VALID,20.8113,VALID,32,VALID,1.25547,
2016-01-28, 13:42:04,VALID,918.327,VALID,0,VALID,104,VALID,215.742,VALID,20.8113,VALID,40,VALID,1.55039,
2016-01-28, 13:43:04,VALID,918.255,VALID,0,VALID,104,VALID,215.634,VALID,20.8129,VALID,20,VALID,2.23594,
2016-01-28, 13:44:04,VALID,918.253,VALID,0,VALID,104,VALID,215.527,VALID,20.7528,VALID,31,VALID,1.83594,
2016-01-28, 13:45:04,VALID,918.265,VALID,0,VALID,104,VALID,215.312,VALID,20.7723,VALID,45,VALID,1.59609,
2016-01-28, 13:46:04,VALID,918.231,VALID,0,VALID,104,VALID,215.527,VALID,20.8894,VALID,43,VALID,1.5,
2016-01-28, 13:47:04,VALID,918.208,VALID,0,VALID,104,VALID,216.494,VALID,20.9674,VALID,17,VALID,1.64023,
2016-01-28, 13:48:04,VALID,918.203,VALID,0,VALID,104,VALID,216.924,VALID,20.9284,VALID,21,VALID,1.9418,
2016-01-28, 13:49:04,VALID,918.157,VALID,0,VALID,104,VALID,217.031,VALID,20.9479,VALID,39,VALID,1.06953,
2016-01-28, 13:50:04,VALID,918.12,VALID,0,VALID,104,VALID,216.709,VALID,20.9674,VALID,75,VALID,1.38711,
2016-01-28, 13:51:04,VALID,918.092,VALID,0,VALID,104,VALID,216.064,VALID,20.9495,VALID,50,VALID,1.0582,
2016-01-28, 13:52:04,VALID,918.112,VALID,0,VALID,104,VALID,215.634,VALID,20.9869,VALID,31,VALID,0.391797,
2016-01-28, 13:53:04,VALID,918.072,VALID,0,VALID,104,VALID,215.42,VALID,21.125,VALID,31,VALID,0,
2016-01-28, 13:54:04,VALID,918.038,VALID,0,VALID,104,VALID,215.312,VALID,21.125,VALID,31,VALID,0,
2016-01-28, 13:55:04,VALID,918.058,VALID,0,VALID,104,VALID,215.097,VALID,21.164,VALID,31,VALID,0,
2016-01-28, 13:56:04,VALID,918.018,VALID,0,VALID,104,VALID,214.775,VALID,21.2031,VALID,31,VALID,0,
2016-01-28, 13:57:04,VALID,918.032,VALID,0,VALID,104,VALID,214.13,VALID,21.1836,VALID,102,VALID,0,
2016-01-28, 13:58:04,VALID,918.013,VALID,0,VALID,104,VALID,212.841,VALID,21.2226,VALID,49,VALID,1.42305,
2016-01-28, 13:59:04,VALID,917.999,VALID,0,VALID,104,VALID,211.444,VALID,21.2616,VALID,57,VALID,0.913281,
2016-01-28, 14:00:04,VALID,917.967,VALID,0,VALID,104,VALID,209.94,VALID,21.3591,VALID,55,VALID,0.830469,
2016-01-28, 14:01:04,VALID,917.942,VALID,0,VALID,104,VALID,208.436,VALID,21.3591,VALID,70,VALID,0,
2016-01-28, 14:02:04,VALID,917.92,VALID,0,VALID,102.657,VALID,206.717,VALID,21.2811,VALID,141,VALID,0,
2016-01-28, 14:03:04,VALID,917.907,VALID,0,VALID,102.992,VALID,205.105,VALID,21.3185,VALID,136,VALID,0,
2016-01-28, 14:04:04,VALID,917.868,VALID,0,VALID,102.421,VALID,203.708,VALID,21.299,VALID,121,VALID,1.10938,
2016-01-28, 14:05:04,VALID,917.821,VALID,0,VALID,102.238,VALID,202.741,VALID,21.2811,VALID,118,VALID,1.53164,
2016-01-28, 14:06:04,VALID,917.822,VALID,0,VALID,102.893,VALID,201.989,VALID,21.2795,VALID,111,VALID,0.3,
2016-01-28, 14:07:04,VALID,917.789,VALID,0,VALID,102.916,VALID,201.882,VALID,21.221,VALID,122,VALID,1.22578,
2016-01-28, 14:08:04,VALID,917.739,VALID,0,VALID,103.099,VALID,202.204,VALID,21.2616,VALID,127,VALID,1.11836,
2016-01-28, 14:09:04,VALID,917.732,VALID,0,VALID,102.962,VALID,203.279,VALID,21.221,VALID,109,VALID,0,
2016-01-28, 14:10:04,VALID,917.68,VALID,0,VALID,103.602,VALID,204.998,VALID,21.2421,VALID,126,VALID,0.730859,
2016-01-28, 14:11:04,VALID,917.702,VALID,0,VALID,104,VALID,207.254,VALID,21.2405,VALID,65,VALID,0.969922,
2016-01-28, 14:12:04,VALID,917.666,VALID,0,VALID,104,VALID,210.585,VALID,21.2811,VALID,117,VALID,1.00898,
2016-01-28, 14:13:04,VALID,917.691,VALID,0,VALID,104,VALID,214.13,VALID,21.26,VALID,88,VALID,0,
2016-01-28, 14:14:04,VALID,917.721,VALID,0,VALID,104,VALID,218.106,VALID,21.2405,VALID,84,VALID,0,
2016-01-28, 14:15:04,VALID,917.695,VALID,0,VALID,104,VALID,223.048,VALID,21.3201,VALID,112,VALID,0.985937,
2016-01-28, 14:16:04,VALID,917.673,VALID,0,VALID,104,VALID,227.99,VALID,21.3006,VALID,125,VALID,0.438281,
2016-01-28, 14:17:04,VALID,917.691,VALID,0,VALID,104,VALID,233.362,VALID,21.3981,VALID,117,VALID,0,
2016-01-28, 14:18:04,VALID,917.645,VALID,0,VALID,104,VALID,238.412,VALID,21.4355,VALID,125,VALID,0,
2016-01-28, 14:19:04,VALID,917.61,VALID,0,VALID,104,VALID,243.462,VALID,21.4372,VALID,139,VALID,0,
2016-01-28, 14:20:04,VALID,917.632,VALID,0,VALID,104,VALID,248.297,VALID,21.4746,VALID,107,VALID,0,
2016-01-28, 14:21:04,VALID,917.588,VALID,0,VALID,103.999,VALID,253.454,VALID,21.4177,VALID,144,VALID,0,
2016-01-28, 14:22:04,VALID,917.587,VALID,0,VALID,103.328,VALID,258.289,VALID,21.377,VALID,132,VALID,0,
2016-01-28, 14:23:04,VALID,917.585,VALID,0,VALID,103.221,VALID,262.694,VALID,21.3965,VALID,133,VALID,0,
2016-01-28, 14:24:04,VALID,917.575,VALID,0,VALID,103.526,VALID,266.454,VALID,21.4746,VALID,133,VALID,0,
2016-01-28, 14:25:04,VALID,917.569,VALID,0,VALID,103.755,VALID,268.71,VALID,21.5526,VALID,90,VALID,0,
2016-01-28, 14:26:04,VALID,917.593,VALID,0,VALID,104,VALID,270,VALID,21.6696,VALID,90,VALID,0,
2016-01-28, 14:27:04,VALID,917.573,VALID,0,VALID,101.704,VALID,270.429,VALID,21.6306,VALID,134,VALID,0,
2016-01-28, 14:28:04,VALID,917.594,VALID,0,VALID,100.385,VALID,270.322,VALID,21.6713,VALID,139,VALID,0,
2016-01-28, 14:29:04,VALID,917.616,VALID,0,VALID,101.651,VALID,270.215,VALID,21.7087,VALID,137,VALID,0,
2016-01-28, 14:30:04,VALID,917.595,VALID,0,VALID,101.986,VALID,271.074,VALID,21.7672,VALID,139,VALID,0,
2016-01-28, 14:31:04,VALID,917.613,VALID,0,VALID,102.329,VALID,273.223,VALID,21.8257,VALID,135,VALID,0,
2016-01-28, 14:32:04,VALID,917.625,VALID,0,VALID,102.215,VALID,276.339,VALID,21.8842,VALID,127,VALID,0,
2016-01-28, 14:33:04,VALID,917.613,VALID,0,VALID,101.818,VALID,279.992,VALID,21.9623,VALID,54,VALID,0,
2016-01-28, 14:34:04,VALID,917.612,VALID,0,VALID,99.7143,VALID,285.471,VALID,21.9623,VALID,154,VALID,0,
2016-01-28, 14:35:04,VALID,917.629,VALID,0,VALID,98.5555,VALID,289.984,VALID,21.9818,VALID,134,VALID,0,
2016-01-28, 14:36:04,VALID,917.6,VALID,0,VALID,92.9066,VALID,295.678,VALID,21.9428,VALID,144,VALID,0.662109,
2016-01-28, 14:37:04,VALID,917.592,VALID,0,VALID,93.8443,VALID,304.596,VALID,21.9623,VALID,118,VALID,1.06641,
2016-01-28, 14:38:04,VALID,917.569,VALID,0,VALID,89.659,VALID,304.381,VALID,21.9818,VALID,106,VALID,0.948828,
2016-01-28, 14:39:04,VALID,917.547,VALID,0,VALID,84.9935,VALID,319.637,VALID,21.9623,VALID,134,VALID,1.1,
2016-01-28, 14:40:04,VALID,917.539,VALID,0,VALID,85.4585,VALID,320.712,VALID,21.9818,VALID,139,VALID,1.0875,
2016-01-28, 14:41:04,VALID,917.529,VALID,0,VALID,85.8168,VALID,338.869,VALID,22.0403,VALID,157,VALID,0.178516,
2016-01-28, 14:42:04,VALID,917.531,VALID,0,VALID,86.3581,VALID,349.506,VALID,22.1557,VALID,151,VALID,0,
2016-01-28, 14:43:04,VALID,917.517,VALID,0,VALID,84.8029,VALID,357.886,VALID,22.333,VALID,146,VALID,0,
2016-01-28, 14:44:04,VALID,917.512,VALID,0,VALID,82.4625,VALID,358.209,VALID,22.5086,VALID,146,VALID,0,
2016-01-28, 14:45:04,VALID,917.496,VALID,0,VALID,81.5096,VALID,357.994,VALID,22.663,VALID,146,VALID,0,
2016-01-28, 14:46:04,VALID,917.485,VALID,0,VALID,84.7495,VALID,349.506,VALID,22.8404,VALID,144,VALID,0,
2016-01-28, 14:47:04,VALID,917.463,VALID,0,VALID,86.8383,VALID,348.002,VALID,22.7801,VALID,153,VALID,0.834375,
2016-01-28, 14:48:04,VALID,917.462,VALID,0,VALID,84.5208,VALID,352.085,VALID,22.7606,VALID,173,VALID,0.909375,
2016-01-28, 14:49:04,VALID,917.457,VALID,0,VALID,84.1701,VALID,340.696,VALID,22.7818,VALID,177,VALID,0.766797,
2016-01-28, 14:50:04,VALID,917.456,VALID,0,VALID,83.7661,VALID,337.688,VALID,22.8191,VALID,177,VALID,0.25625,
2016-01-28, 14:51:04,VALID,917.433,VALID,0,VALID,83.5831,VALID,330.382,VALID,22.9167,VALID,180,VALID,0.601563,
2016-01-28, 14:52:04,VALID,917.403,VALID,0,VALID,83.1715,VALID,327.91,VALID,22.9965,VALID,204,VALID,0.775781,
2016-01-28, 14:53:04,VALID,917.406,VALID,0,VALID,80.4194,VALID,325.654,VALID,23.0338,VALID,192,VALID,1.49883,
2016-01-28, 14:54:04,VALID,917.402,VALID,0,VALID,80.6405,VALID,321.464,VALID,23.0533,VALID,207,VALID,1.48594,
2016-01-28, 14:55:04,VALID,917.386,VALID,0,VALID,80.3127,VALID,321.249,VALID,23.0728,VALID,206,VALID,0.53125,
2016-01-28, 14:56:04,VALID,917.426,VALID,0,VALID,77.6064,VALID,321.786,VALID,23.0924,VALID,198,VALID,0,
2016-01-28, 14:57:04,VALID,917.398,VALID,0,VALID,79.2302,VALID,319.208,VALID,23.1527,VALID,194,VALID,0,
2016-01-28, 14:58:04,VALID,917.389,VALID,0,VALID,76.4934,VALID,315.232,VALID,23.1899,VALID,197,VALID,0,
2016-01-28, 14:59:04,VALID,917.36,VALID,0,VALID,77.6826,VALID,311.472,VALID,23.2893,VALID,190,VALID,0,
2016-01-28, 15:00:04,VALID,917.357,VALID,0,VALID,77.431,VALID,311.042,VALID,23.229,VALID,177,VALID,1.46055,
2016-01-28, 15:01:04,VALID,917.339,VALID,0,VALID,79.0548,VALID,311.15,VALID,23.2094,VALID,179,VALID,0.564844,
2016-01-28, 15:02:04,VALID,917.298,VALID,0,VALID,79.1463,VALID,311.902,VALID,23.229,VALID,186,VALID,0.492578,
2016-01-28, 15:03:04,VALID,917.28,VALID,0,VALID,78.7728,VALID,312.761,VALID,23.229,VALID,185,VALID,0,
2016-01-28, 15:04:04,VALID,917.329,VALID,0,VALID,79.4665,VALID,314.803,VALID,23.2875,VALID,184,VALID,0,
2016-01-28, 15:05:04,VALID,917.341,VALID,0,VALID,79.8019,VALID,316.092,VALID,23.3851,VALID,185,VALID,0,
2016-01-28, 15:06:04,VALID,917.332,VALID,0,VALID,77.8732,VALID,316.092,VALID,23.4827,VALID,252,VALID,0,
2016-01-28, 15:07:04,VALID,917.332,VALID,0,VALID,74.7628,VALID,317.811,VALID,23.4827,VALID,251,VALID,0,
2016-01-28, 15:08:04,VALID,917.357,VALID,0,VALID,77.0575,VALID,315.447,VALID,23.4437,VALID,251,VALID,0,
2016-01-28, 15:09:04,VALID,917.343,VALID,0,VALID,75.6243,VALID,316.951,VALID,23.4827,VALID,230,VALID,0,
2016-01-28, 15:10:04,VALID,917.333,VALID,0,VALID,74.4198,VALID,314.05,VALID,23.4241,VALID,220,VALID,0,
2016-01-28, 15:11:04,VALID,917.349,VALID,0,VALID,75.0602,VALID,313.513,VALID,23.3656,VALID,236,VALID,0,
2016-01-28, 15:12:04,VALID,917.346,VALID,0,VALID,76.5848,VALID,315.555,VALID,23.3265,VALID,218,VALID,0,
2016-01-28, 15:13:04,VALID,917.352,VALID,0,VALID,75.8073,VALID,321.356,VALID,23.3461,VALID,179,VALID,0,
2016-01-28, 15:14:04,VALID,917.349,VALID,0,VALID,75.5176,VALID,320.39,VALID,23.3656,VALID,179,VALID,0,
2016-01-28, 15:15:04,VALID,917.35,VALID,0,VALID,74.8924,VALID,314.158,VALID,23.4028,VALID,179,VALID,0,
2016-01-28, 15:16:04,VALID,917.375,VALID,0,VALID,75.9521,VALID,308.571,VALID,23.5022,VALID,182,VALID,0,
2016-01-28, 15:17:04,VALID,917.319,VALID,0,VALID,74.5875,VALID,303.414,VALID,23.5412,VALID,184,VALID,0,
2016-01-28, 15:18:04,VALID,917.314,VALID,0,VALID,75.548,VALID,301.802,VALID,23.5608,VALID,217,VALID,0,
2016-01-28, 15:19:04,VALID,917.273,VALID,0,VALID,74.0386,VALID,306.422,VALID,23.5022,VALID,239,VALID,0,
2016-01-28, 15:20:04,VALID,917.244,VALID,0,VALID,76.2113,VALID,301.265,VALID,23.4614,VALID,212,VALID,0,
2016-01-28, 15:21:04,VALID,917.241,VALID,0,VALID,76.8593,VALID,293.852,VALID,23.3638,VALID,235,VALID,0,
2016-01-28, 15:22:04,VALID,917.205,VALID,0,VALID,78.5517,VALID,289.446,VALID,23.3053,VALID,236,VALID,0,
2016-01-28, 15:23:04,VALID,917.184,VALID,0,VALID,80.2974,VALID,287.513,VALID,23.3674,VALID,213,VALID,0,
2016-01-28, 15:24:04,VALID,917.199,VALID,0,VALID,77.5911,VALID,285.686,VALID,23.4241,VALID,215,VALID,0,
2016-01-28, 15:25:04,VALID,917.155,VALID,0,VALID,74.9458,VALID,284.934,VALID,23.465,VALID,172,VALID,0,
2016-01-28, 15:26:04,VALID,917.154,VALID,0,VALID,75.4108,VALID,285.471,VALID,23.3851,VALID,172,VALID,0,
2016-01-28, 15:27:04,VALID,917.144,VALID,0,VALID,77.4463,VALID,284.934,VALID,23.4241,VALID,186,VALID,0,
2016-01-28, 15:28:04,VALID,917.112,VALID,0,VALID,80.5338,VALID,284.719,VALID,23.543,VALID,197,VALID,0,
2016-01-28, 15:29:04,VALID,917.139,VALID,0,VALID,81.2275,VALID,285.041,VALID,23.5998,VALID,197,VALID,0,
2016-01-28, 15:30:04,VALID,917.126,VALID,0,VALID,79.2378,VALID,284.289,VALID,23.6992,VALID,194,VALID,0,
2016-01-28, 15:31:04,VALID,917.084,VALID,0,VALID,77.2786,VALID,284.182,VALID,23.7755,VALID,194,VALID,0,
2016-01-28, 15:32:04,VALID,917.072,VALID,0,VALID,74.8086,VALID,284.934,VALID,23.8926,VALID,194,VALID,0,
2016-01-28, 15:33:04,VALID,917.05,VALID,0,VALID,77.6521,VALID,286.116,VALID,23.9902,VALID,205,VALID,0,
2016-01-28, 15:34:04,VALID,917.053,VALID,0,VALID,78.0257,VALID,286.008,VALID,23.8536,VALID,235,VALID,0,
2016-01-28, 15:35:04,VALID,917.061,VALID,0,VALID,78.1324,VALID,288.802,VALID,23.6992,VALID,236,VALID,0,
2016-01-28, 15:36:04,VALID,917.024,VALID,0,VALID,80.0611,VALID,288.694,VALID,23.6193,VALID,236,VALID,0,
2016-01-28, 15:37:04,VALID,917.026,VALID,0,VALID,81.7306,VALID,293.422,VALID,23.6193,VALID,236,VALID,0,
2016-01-28, 15:38:04,VALID,917.021,VALID,0,VALID,82.6912,VALID,299.009,VALID,23.6388,VALID,236,VALID,0,
2016-01-28, 15:39:04,VALID,917.036,VALID,0,VALID,80.4042,VALID,301.587,VALID,23.5998,VALID,251,VALID,0,
2016-01-28, 15:40:04,VALID,916.993,VALID,0,VALID,79.1844,VALID,306.744,VALID,23.5217,VALID,252,VALID,0,
2016-01-28, 15:41:04,VALID,916.999,VALID,0,VALID,79.7867,VALID,302.017,VALID,23.6016,VALID,252,VALID,0,
2016-01-28, 15:42:04,VALID,917.01,VALID,0,VALID,78.9328,VALID,300.083,VALID,23.6193,VALID,252,VALID,0,
2016-01-28, 15:43:04,VALID,916.978,VALID,0,VALID,80.2974,VALID,296.108,VALID,23.7169,VALID,252,VALID,0,
2016-01-28, 15:44:04,VALID,916.989,VALID,0,VALID,80.488,VALID,295.356,VALID,23.8731,VALID,252,VALID,0,
2016-01-28, 15:45:04,VALID,916.963,VALID,0,VALID,79.5808,VALID,292.885,VALID,23.9316,VALID,252,VALID,0,
2016-01-28, 15:46:04,VALID,916.964,VALID,0,VALID,79.8477,VALID,293.959,VALID,23.8536,VALID,249,VALID,0,
2016-01-28, 15:47:04,VALID,916.919,VALID,0,VALID,80.5948,VALID,300.728,VALID,23.7932,VALID,251,VALID,0,
2016-01-28, 15:48:04,VALID,916.898,VALID,0,VALID,79.6037,VALID,336.935,VALID,23.7755,VALID,251,VALID,0,
2016-01-28, 15:49:04,VALID,916.903,VALID,0,VALID,80.7243,VALID,338.869,VALID,23.795,VALID,250,VALID,0,
2016-01-28, 15:50:04,VALID,916.79,VALID,0,VALID,78.8033,VALID,329.522,VALID,23.795,VALID,327,VALID,0,
2016-01-28, 15:51:04,VALID,916.798,VALID,0,VALID,78.6584,VALID,327.803,VALID,23.6956,VALID,309,VALID,0,
2016-01-28, 15:52:04,VALID,916.788,VALID,0,VALID,79.8629,VALID,320.604,VALID,23.756,VALID,310,VALID,0,
2016-01-28, 15:53:04,VALID,916.739,VALID,0,VALID,79.7486,VALID,296.752,VALID,23.8145,VALID,305,VALID,0,
2016-01-28, 15:54:04,VALID,916.752,VALID,0,VALID,78.8414,VALID,289.661,VALID,23.7932,VALID,315,VALID,0,
2016-01-28, 15:55:04,VALID,916.733,VALID,0,VALID,79.5885,VALID,291.918,VALID,23.7755,VALID,338,VALID,0,
2016-01-28, 15:56:04,VALID,916.733,VALID,0,VALID,78.3687,VALID,301.48,VALID,23.7364,VALID,335,VALID,0,
2016-01-28, 15:57:04,VALID,916.734,VALID,0,VALID,79.0243,VALID,327.91,VALID,23.7364,VALID,360,VALID,0,